Location: Downe
(51.3167°N, 0.0500°E)
Time: 03:17:27
(UTC+00:00)

Cosmos 967 Rocket - Pass Details

Date: 17 November 2019
Orbit: 943 x 994 km, 65.8° (Epoch: 12 December)

Event Time Altitude Azimuth Distance (km) Brightness Sun altitude
Exits shadow 04:48:57 38° 229° (SW) 1,451 5.0 -23.3°
Maximum altitude 04:51:37 80° 311° (NW) 997 4.4 -22.9°
Drops below altitude 10° 04:58:05 10° 39° (NE) 2,752 7.3 -21.9°
Sets 05:00:41 0° 41° (NE) 3,709 8.1 -21.5°
